This is the latest recevied weather packets stored in our database for station/object KC3VCX. If no packets are shown the sender has not sent any weather packets the latest 10 day(s).
| Time | Temp. | Humidity | Pressure | Rain* | Wind** | Luminosity | Snow |
|---|---|---|---|---|---|---|---|
| 1777752506 | 6.11° C | 72% | 1016.7 hPa | 0 mm | - | 266 W/m² | - |
| 1777752201 | 6.11° C | 72% | 1016.6 hPa | 0 mm | - | 217 W/m² | - |
| 1777751900 | 6.11° C | 71% | 1016.9 hPa | 0 mm | - | 197 W/m² | - |
| 1777751596 | 5.56° C | 72% | 1016.9 hPa | 0 mm | - | 194 W/m² | - |
| 1777751293 | 5.56° C | 71% | 1016.9 hPa | 0 mm | - | 195 W/m² | - |
| 1777750990 | 5.56° C | 70% | 1017 hPa | 0 mm | - | 197 W/m² | - |
| 1777750685 | 5.56° C | 71% | 1017.1 hPa | 0 mm | - | 154 W/m² | - |
| 1777750383 | 5.56° C | 72% | 1017.3 hPa | 0 mm | - | 197 W/m² | - |
| 1777750078 | 6.11° C | 71% | 1017.2 hPa | 0 mm | - | 266 W/m² | - |
| 1777749776 | 6.11° C | 73% | 1017.3 hPa | 0 mm | - | 303 W/m² | - |
| 1777749472 | 5.56° C | 71% | 1017.6 hPa | 0 mm | - | 256 W/m² | - |
| 1777749170 | 5.56° C | 71% | 1017.3 hPa | 0 mm | - | 243 W/m² | - |
| 1777748867 | 5.56° C | 71% | 1017.4 hPa | 0 mm | - | 222 W/m² | - |
| 1777748565 | 5.56° C | 73% | 1017.6 hPa | 0 mm | - | 185 W/m² | - |
| 1777748265 | 5.56° C | 73% | 1017.6 hPa | 0 mm | - | 181 W/m² | - |
| 1777747962 | 5.56° C | 71% | 1017.6 hPa | 0 mm | - | 179 W/m² | - |
| 1777747658 | 5.56° C | 72% | 1017.4 hPa | 0 mm | - | 170 W/m² | - |
| 1777747354 | 6.11° C | 73% | 1017.6 hPa | 0 mm | - | 222 W/m² | - |
| 1777747050 | 5.56° C | 75% | 1017.4 hPa | 0 mm | - | 190 W/m² | - |
| 1777746746 | 5.56° C | 74% | 1017.7 hPa | 0 mm | - | 178 W/m² | - |
| 1777746441 | 5.56° C | 75% | 1017.3 hPa | 0 mm | - | 186 W/m² | - |
| 1777746137 | 5.56° C | 78% | 1017.4 hPa | 0 mm | - | 215 W/m² | - |
| 1777745834 | 5.56° C | 75% | 1017.7 hPa | 0 mm | - | 235 W/m² | - |
| 1777745534 | 5.56° C | 75% | 1017.4 hPa | 0 mm | - | 168 W/m² | - |
| 1777745231 | 6.11° C | 77% | 1017.4 hPa | 0 mm | - | 223 W/m² | - |
* Rain latest hour (hover to see other rain measurements)
** Current wind speed in m/s (hover to see current wind gust speed)